Погода в Гремячеве

Россия / Калужская область     54°14′32″N   36°15′17″E
темп.,
°C
ветер,
м/с
пор.,
м/с
влажн.,
%
обл.,
%
осадки,
мм/ч
давл.,
гПа
погр.,
м
21 января, пт
пт2100:00−3ю61395100 0.3 1002626
03:00−3ю51195100 1.0 1001537
06:00−4ю51194100 0.1 1000481
09:00−4ю4995100 0.4 999387
12:00−3ю4894100 0.1 998593
15:00−4ю488783 0.1 997459
18:00−7ю5119396 0.0 997335
21:00−5ююв51294100 0.6 996538
22 января, сб
сб2200:00−5ююв41096100 0.5 996453
03:00−4ююз499693 1.0 997456
06:00−7ю2597100 0.1 99996
09:00−8ююв249791 0.1 100252
12:00−5ююз269278 0.3 1004405
15:00−6ююв249478 0.3 1006200
18:00−10юв119986 0.1 100910
21:00−13ююв11100100 0.1 10129
23 января, вс
вс2300:00−16вюв11100100 0.0 10159
03:00−17в11100100 0.1 101712
06:00−18в11100100 0.0 102010
09:00−19всв11100100 0.1 102411
12:00−10всв129590 0.0 1026114
15:00−8всв139538 0.1 1028108
18:00−15св229967 0.0 103210
21:00−18всв1110090 0.0 103411
24 января, пн
пн2400:00−20ссв2210098 0.0 103612
03:00−20ссв22100100 0.0 103719
06:00−20ссв22100100 0.0 103731
09:00−20ссв23100100 0.1 103846
12:00−11св249367 0.0 1037159
15:00−9ссв259424 0.0 1036204
18:00−16св1210070 0.0 103710
21:00−20св1110096 0.0 103710
25 января, вт
вт2500:00−20ссв11100100 0.0 103610
03:00−20ссв11100100 0.0 10359
06:00−20св00100100 0.0 10339
09:00−21ююв22100100 0.1 103221
12:00−12ю129575 0.0 1030111
15:00−9ю23937 0.0 1027149
18:00−16ю229966 0.0 102623
21:00−18ю2210076 0.0 102529